www.pogodaiklimat.ru

Погода и климат >> Архив погоды >> Россия >> Якутия >> Саскылах


АРХИВ ПОГОДЫ в Саскылахе

Время (UTC), дата Ветер
(напр.,м/с)
 
Видим.   Явления Облачность Т
(С)
Тd
(С)
f
(%)
Тe
(С)
Тes
(С)
Комфортность P
(гПа)
Po
(гПа)
Тmin
(С)
Tmax
(С)
R
(мм)
R24
(мм)
S
(см)
21 11.01 штиль 0 50 км ясно -42.4 -47.0 60 -42 -42 опасность
обморожения
1013.1 1010.4
00 12.01 штиль 0 50 км ясно -40.8 -45.3 62 -41 -41 опасность
обморожения
1014.2 1011.5 -42.8 49
03 12.01 штиль 0 50 км 3/0
[]
-41.8 -46.3 61 -42 -42 опасность
обморожения
1015.3 1012.5
06 12.01 ЮВ 1 50 км 6/0
[Ac cast]
-40.6 -45.3 60 -46 -46 опасность
обморожения
1016.7 1013.9
09 12.01 ЮВ 3 50 км ясно -42.2 -46.9 60 -54 -54 опасность
обморожения
1018.6 1015.8
12 12.01 ЮВ 3 50 км ясно -43.9 -48.8 58 -56 -56 опасность
обморожения
1020.2 1017.4 -40.7
15 12.01 ЮВ 3 50 км ясно -44.9 -50.1 56 -58 -58 опасность
обморожения
1022.5 1019.7
18 12.01 ЮВ 3 н/о н/о -45.9 -51.2 55 -59 -59 опасность
обморожения
1024.3 1021.8
21 12.01 ЮВ 1 50 км ясно -46.2 -51.4 55 -52 -52 опасность
обморожения
1026.1 1023.3
00 13.01 ЮВ 2 50 км ясно -46.7 -51.9 55 -57 -57 опасность
обморожения
1027.3 1024.5 -46.8 49
03 13.01 ЮВ 1 50 км ясно -47.3 -52.5 55 -53 -53 опасность
обморожения
1028.6 1025.8
06 13.01 Ю 2 50 км ясно -47.0 -52.2 55 -57 -57 опасность
обморожения
1029.6 1026.8
09 13.01 ЮЗ 1 н/о н/о -48.4 -53.8 53 -55 -55 опасность
обморожения
1030.8 1028.3
12 13.01 ЮЗ 1 50 км ясно -48.8 -54.3 52 -55 -55 опасность
обморожения
1031.6 1028.6 -47.3
15 13.01 Ю 1 50 км ясно -48.8 -54.4 52 -55 -55 опасность
обморожения
1031.6 1028.8
18 13.01 ЮЗ 1 н/о н/о -49.3 -54.9 52 -56 -56 опасность
обморожения
1031.8 1029.3
21 13.01 штиль 0 50 км ясно -49.5 -55.2 51 -50 -50 опасность
обморожения
1029.4 1026.6
00 14.01 Ю 1 50 км ясно -49.7 -55.4 51 -56 -56 опасность
обморожения
1032.1 1029.3 -49.9 49
03 14.01 Ю 1 50 км ясно -49.0 -54.6 52 -55 -55 опасность
обморожения
1032.2 1029.4
06 14.01 Ю 1 50 км ясно -48.9 -54.4 52 -55 -55 опасность
обморожения
1032.2 1029.4
09 14.01 Ю 1 50 км ясно -49.3 -55.1 50 -56 -56 опасность
обморожения
1032.5 1029.7
12 14.01 ЮВ 1 50 км ясно -49.0 -54.6 52 -55 -55 опасность
обморожения
1032.8 1030.0 -49.1
15 14.01 Ю 1 50 км ясно -48.9 -54.4 52 -55 -55 опасность
обморожения
1032.5 1029.7
18 14.01 Ю 1 н/о н/о -49.2 -54.8 52 -55 -55 опасность
обморожения
1032.0 1029.4
21 14.01 ЮВ 1 50 км ясно -48.4 -54.1 51 -55 -55 опасность
обморожения
1031.6 1028.8
00 15.01 ЮВ 1 50 км ясно -47.8 -53.2 53 -54 -54 опасность
обморожения
1031.1 1028.3 -49.3 49
03 15.01 ЮВ 4 50 км дымка ясно -46.2 -51.6 54 -61 -61 опасность
обморожения
1031.0 1028.2
06 15.01 ЮВ 3 4000 м дымка ясно -42.8 -47.7 58 -55 -55 опасность
обморожения
1028.5 1025.7
09 15.01 В 5 50 км ясно -42.7 -47.5 59 -58 -58 опасность
обморожения
1026.9 1024.1
12 15.01 ЮВ 2 50 км ясно -41.5 -46.2 60 -51 -51 опасность
обморожения
1025.1 1022.3 -41.6
15 15.01 Ю 5 50 км ясно -39.8 -44.4 61 -55 -55 опасность
обморожения
1022.3 1019.5
18 15.01 ЮВ 6 н/о н/о -39.3 -43.6 63 -55 -55 опасность
обморожения
1019.0 1016.6
21 15.01 ЮВ 5 50 км ясно -37.8 -42.0 65 -52 -52 опасность
обморожения
1016.8 1014.0
00 16.01 ЮВ 6 50 км ясно -35.6 -39.6 67 -51 -51 опасность
обморожения
1013.9 1011.2 -41.6 49
03 16.01 ЮВ 6 50 км 3/0
[Ci fib]
-32.5 -36.3 69 -47 -47 опасность
обморожения
1010.4 1007.7
06 16.01 В 5 4000 м дымка 10/10 450 м
[Sc]
-29.4 -32.8 72 -42 -42 опасность
обморожения
1008.2 1005.6
09 16.01 В 5 4000 м дымка 10/10 450 м
[Sc]
-28.4 -31.9 72 -41 -41 опасность
обморожения
1006.6 1004.0
12 16.01 ЮВ 5 н/о н/о -26.1 -29.0 76 -38 -38 опасность
обморожения
1004.9 1002.7 -26.1
15 16.01 ЮВ 5 50 км 10/0
[Ac und]
-24.1 -27.0 77 -35 -35 опасность
обморожения
1004.4 1001.8
18 16.01 ЮВ 5 50 км 10/0
[Ac und]
-23.4 -26.6 75 -34 -34 опасность
обморожения
1004.5 1002.0
21 16.01 Ю 5 50 км 10/0
[Ac und]
-23.6 -26.7 76 -35 -35 опасность
обморожения
1005.0 1002.5
00 17.01 В 3 50 км ясно -26.4 -29.2 77 -35 -35 опасность
обморожения
1006.3 1003.8 -26.5 49
03 17.01 В 3 50 км ясно -28.6 -31.7 75 -38 -38 опасность
обморожения
1007.0 1004.4
06 17.01 ЮВ 3 50 км ясно -30.7 -33.8 74 -40 -40 опасность
обморожения
1008.7 1006.1
09 17.01 ЮВ 3 50 км ясно -32.7 -36.1 71 -43 -43 опасность
обморожения
1010.6 1008.0
12 17.01 С 1 50 км ясно -35.4 -39.1 69 -40 -40 опасность
обморожения
1012.9 1010.2 -26.4
15 17.01 штиль 0 н/о н/о -38.5 -42.5 66 -39 -39 опасность
обморожения
1014.2 1011.8
18 17.01 Ю 1 н/о н/о -40.8 -45.1 63 -46 -46 опасность
обморожения
1015.9 1013.5
21 17.01 В 1 50 км ясно -40.8 -45.3 62 -46 -46 опасность
обморожения
1017.8 1015.0
00 18.01 ЮВ 2 50 км ясно -41.1 -45.6 62 -50 -50 опасность
обморожения
1019.0 1016.2 -41.2 49
03 18.01 В 1 50 км ясно -41.6 -46.1 61 -47 -47 опасность
обморожения
1019.0 1016.3
06 18.01 В 1 50 км ясно -41.6 -46.1 61 -47 -47 опасность
обморожения
1019.0 1016.3
09 18.01 ЮВ 1 50 км ясно -42.0 -46.7 60 -47 -47 опасность
обморожения
1018.2 1015.5
12 18.01 Ю 1 50 км ясно -40.5 -45.0 62 -46 -46 опасность
обморожения
1017.3 1014.6 -41.7
15 18.01 Ю 5 н/о н/о -38.1 -42.2 65 -53 -53 опасность
обморожения
1014.2 1011.9

 

Местоположение метеостанции Саскылах (Якутия, Россия): широта 71.97 долгота 114.00 высота над уровнем моря 17 м.

В архиве по умолчанию представлена погода в Саскылахе за последнюю неделю. Архивные данные за месяц целиком и за предыдущие месяцы, начиная с января 2011 года, Вы можете получить, выбрав интересующий диапазон дат из раскрывающегося списка и нажав кнопку "Ввод!".


*Определитесь, кто Вы:
робот инопланетянин человек

Внимание! Время в таблицах - всемирное. Для получения местного времени необходимо прибавить поправку, которая равна 9 ч.

Смотрите также архив погоды в соседних городах и на ближайших метеорологических станциях:

Погода в Анабаре (Якутия, Россия) (140 км)
Погода в Джалинде (Якутия, Россия) (205 км)
Погода на Усть-Оленеке (Якутия, Россия) (225 км)
Погода на Острове Преображения (Якутия, Россия) (302 км)
Погода в Тюмяти (Якутия, Россия) (327 км)
Погода в Оленеке (Якутия, Россия) (391 км)
Погода в Хатанге (Красноярский край, Россия) (396 км)
Погода в Сухане (Якутия, Россия) (406 км)
Погода на Столб Острове (Якутия, Россия) (421 км)
Погода в Кюсюре (Якутия, Россия) (497 км)

Пояснения к столбцам:

Ветер - указаны скорость ветра в м/с - средняя за 10 мин, порывы в срок и между сроками (в фигурных скобках) и направление, откуда дует ветер: С - северный, СВ - северо-восточный, В - восточный, ЮВ - юго-восточный, Ю - южный, ЮЗ - юго-западный, З - западный, СЗ - северо-западный.
Видимость - горизонтальная дальность видимости в метрах или километрах. При видимости от 1 до 10 км при отсутствии осадков обычно наблюдается дымка, при ухудшении видимости до 1 км и менее - туман. В сухую погоду видимость может ухудшаться дымом, пылью или мглою.
Явления - указаны атмосферные явления, наблюдавшиеся в срок или в последний час перед сроком; фигурными скобками обозначены явления, наблюдавшиеся между сроками (за 1-3 часа до срока); квадратными скобками обозначены град или гололедные отложения с указанием их диаметра в мм.
Облачность - указаны через наклонную черту общая и нижняя облачность в баллах и высота нижней границы облаков в метрах; квадратными скобками обозначены формы облаков: Ci - перистые, Cs - перисто-слоистые, Cc - перисто-кучевые, Ac - высококучевые, As - высокослоистые, Sc - слоисто-кучевые, Ns - слоисто-дождевые, Cu - кучевые, Cb - кучево-дождевые. Подробнее классификацию облаков см. в Атласе облаков (PDF).
T - Температура воздуха - температура, измеренная на высоте 2 м над землей.
Td - Температура точки росы - температура, при понижении до которой содержащийся в воздухе водяной пар достигнет насыщения.
f - Относительная влажность воздуха - влажноcть воздуха, измеренная на высоте 2 м над землей.
Te - Эффективная температура - температура, которую ощущает одетый по сезону человек в тени. Характеристика душности погоды. При расчете учитывается влияние влажности воздуха и скорости ветра на теплоощущения человека.
Tes - Эффективная температура на солнце - температура, которую ощущает человек, с поправкой на солнечный нагрев. Характеристика знойности погоды. Зависит от высоты солнца над горизонтом, облачности и скорости ветра. Ночью, в пасмурную погоду, а также при ветре 12 м/с и более поправка равна нулю.
P - Атмосферное давление - приведенное к уровню моря атмосферное давление.
Po - Атмосферное давление - измеренное на уровне метеостанции атмосферное давление.
Tmin - Минимальная температура - минимум температуры воздуха на высоте 2 м над землей.
Tmax - Максимальная температура - максимум температуры воздуха на высоте 2 м над землей.
R - Количество осадков - Количество выпавших осадков за период времени, мм. При наведении курсора мыши на число - период времени, за который выпало указанное количество осадков.
R24 - Количество осадков - Количество выпавших осадков за 24 часа, мм.
S - Снежный покров - Высота снежного покрова, см. При наведении курсора мыши на число - состояние снежного покрова и степень покрытия местности в баллах.